DateTimeUTC,F1_A11,F1_S11,BsB_S11,BsG_S11,BsR_S11,BbsB_S11,BbsG_S11,BbsR_S11,BaB_A11,BaG_A11,BaR_A11,Tu_S11,T_S11,Uu_S11,U_S11,P_S11,T1_A11
2021-01-28T21:00:00Z,00000200,21000000,,,,,,,-000.00,-000.13,0000.02,14.5,22.7,,00.0,0632.7,30.8
2021-01-28T21:01:00Z,00000200,21000000,,,,,,,-000.09,-000.12,0000.11,14.5,22.7,,00.0,0632.7,30.8
2021-01-28T21:02:00Z,00000200,21000000,,,,,,,-000.21,0000.25,-000.03,14.5,22.7,,00.0,0632.7,30.8
2021-01-28T21:03:00Z,00000200,61000000,,,,,,,-000.03,0000.22,-000.15,14.5,22.7,,00.0,0632.7,30.8
2021-01-28T21:04:00Z,00000200,41000000,-000.16,0000.03,-000.21,0000.28,-000.11,-000.29,0000.27,-000.34,0000.32,15.0,22.5,,00.0,0633.5,30.8
2021-01-28T21:05:00Z,00000200,01000000,0001.22,0000.21,-000.10,0000.03,0000.14,0000.14,-000.15,0000.31,0000.03,15.1,22.5,,00.0,0633.6,30.8
2021-01-28T21:06:00Z,00000200,01000000,0000.12,0000.45,-000.06,0000.06,0000.28,-000.13,-000.10,-000.19,0000.09,15.2,22.5,,00.0,0633.6,30.8
2021-01-28T21:07:00Z,00000200,01000000,0000.61,0000.38,-000.28,0000.35,-000.20,0000.03,-000.08,0000.12,-000.08,15.3,22.5,,00.0,0633.6,30.8
2021-01-28T21:08:00Z,00000200,01000000,0000.22,0000.20,0000.03,0000.61,-000.19,-000.11,0000.47,-000.11,0000.14,15.4,22.5,,00.0,0633.6,30.9
2021-01-28T21:09:00Z,00000200,01000000,-000.33,0000.06,-000.06,0000.20,0000.18,-000.10,0000.09,0000.28,0000.18,15.4,22.5,,00.0,0633.6,30.9
2021-01-28T21:10:00Z,00000200,01000000,0000.54,0000.21,0000.00,0000.15,0000.16,0000.01,0000.10,0000.19,0000.28,15.5,22.5,,00.0,0633.7,30.9
2021-01-28T21:11:00Z,00000200,01000000,0000.62,0000.08,0000.11,0000.38,-000.15,-000.24,0000.01,0000.38,0000.06,15.5,22.6,,00.0,0633.7,30.9
2021-01-28T21:12:00Z,00000200,01000000,0000.40,-000.00,-000.12,0000.08,0000.04,-000.02,0000.17,0000.06,-000.06,15.6,22.6,,00.0,0633.7,30.9
2021-01-28T21:13:00Z,00000200,01000000,0000.42,0000.08,-000.01,0000.20,0000.16,-000.10,0000.19,-000.20,-000.00,15.7,22.6,,00.0,0633.6,30.9
2021-01-28T21:14:00Z,00000200,01000000,0000.04,0000.26,-000.21,0000.32,-000.20,0000.09,-000.23,0000.06,-000.11,15.7,22.6,,00.0,0633.6,30.9
2021-01-28T21:15:00Z,00000200,01000000,0000.08,0000.25,-000.10,0000.45,0000.05,-000.21,-000.37,-000.25,0000.10,15.7,22.6,,00.0,0633.6,30.9
2021-01-28T21:16:00Z,00000200,01000000,0000.64,0000.20,-000.20,0000.41,0000.07,-000.04,0000.72,0000.32,0000.26,15.7,22.6,,00.0,0633.6,30.9
2021-01-28T21:17:00Z,00000200,01000000,-000.24,0000.18,-000.16,-000.02,-000.10,-000.15,0000.21,0000.27,0000.27,15.7,22.6,,00.0,0633.6,30.9
2021-01-28T21:18:00Z,00000200,01000000,0000.33,0000.05,-000.06,-000.20,0000.16,-000.11,0000.10,0000.20,-000.16,15.8,22.7,,00.0,0633.6,30.9
2021-01-28T21:19:00Z,00000200,01000000,0000.78,0000.06,-000.06,0000.27,0000.11,-000.03,0000.01,0000.12,0000.16,15.8,22.7,,00.0,0633.6,30.9
2021-01-28T21:20:00Z,00000200,01000000,0000.01,0000.10,0000.13,0000.31,0000.15,-000.14,0000.23,-000.01,-000.24,15.9,22.7,,00.0,0633.7,30.9
2021-01-28T21:21:00Z,00000200,01000000,0000.45,0000.41,-000.18,0000.50,0000.18,0000.09,-000.23,0000.04,0000.24,15.9,22.7,,00.0,0633.7,30.9
2021-01-28T21:22:00Z,00000200,01000000,0000.01,0000.12,-000.16,0000.18,0000.04,-000.05,0000.09,0000.14,0000.17,16.0,22.8,,00.0,0633.7,30.9
2021-01-28T21:23:00Z,00000200,01000000,0000.37,0000.30,-000.17,0000.02,0000.08,-000.19,0000.15,0000.20,-000.27,16.0,22.8,,00.0,0633.7,30.9
2021-01-28T21:24:00Z,00000200,01000000,0000.78,0000.19,-000.14,0000.07,0000.03,0000.02,0000.11,-000.32,0000.12,16.1,22.8,,00.0,0633.7,30.9
2021-01-28T21:25:00Z,00000200,01000000,0000.41,0000.48,0000.09,-000.19,0000.09,0000.12,-000.16,0000.52,0000.32,16.1,22.8,,00.0,0633.7,30.9
2021-01-28T21:26:00Z,00000200,01000000,-000.14,0000.29,-000.14,-000.07,-000.00,0000.15,0000.13,0000.05,-000.16,16.2,22.9,,00.0,0633.7,30.9
2021-01-28T21:27:00Z,00000200,01000000,0000.53,-000.06,0000.17,-000.21,-000.01,0000.05,0000.18,0000.00,0000.05,16.2,22.9,,00.0,0633.7,30.9
2021-01-28T21:28:00Z,00000200,01000000,0000.22,0000.23,-000.07,0000.11,0000.21,0000.04,-000.29,-000.30,0000.14,16.2,22.9,,00.0,0633.8,30.9
2021-01-28T21:29:00Z,00000200,01000000,0000.02,0000.42,-000.33,-000.50,0000.24,-000.12,0000.37,0000.37,-000.36,16.2,22.9,,00.0,0633.8,30.9
2021-01-28T21:30:00Z,00000200,01000000,-000.01,0000.01,-000.11,-000.11,-000.12,-000.15,-000.29,-000.40,0000.23,16.2,22.9,,00.0,0633.8,30.9
2021-01-28T21:31:00Z,00000200,01000000,0000.60,0000.04,-000.03,-000.01,0000.16,-000.01,0000.46,0000.52,0000.07,16.2,22.9,,00.0,0633.7,30.9
2021-01-28T21:32:00Z,00000200,01000000,0000.58,0000.03,0000.08,0000.21,-000.06,-000.12,-000.05,0000.12,0000.13,16.2,22.9,,00.0,0633.8,30.9
2021-01-28T21:33:00Z,00000200,01000000,-000.54,0000.44,0000.11,0000.35,-000.14,-000.17,0000.31,0000.10,0000.18,16.2,22.9,,00.0,0633.8,30.9
2021-01-28T21:34:00Z,00000200,01000000,0000.86,0000.31,-000.08,0000.09,0000.22,-000.04,0000.39,-000.02,0000.15,16.2,23.0,,00.0,0633.8,30.9
2021-01-28T21:35:00Z,00000200,01000000,0000.62,-000.05,-000.08,0000.28,0000.03,-000.09,0000.58,0000.48,0000.12,16.3,23.0,,00.0,0633.8,30.9
2021-01-28T21:36:00Z,00000200,01000000,-000.29,0000.29,-000.12,0000.33,-000.11,-000.03,-000.55,-000.03,0000.25,16.3,23.0,,00.0,0633.8,30.9
2021-01-28T21:37:00Z,00000200,01000000,0000.56,0000.19,-000.21,0000.29,0000.11,-000.23,0000.03,-000.20,-000.02,16.4,23.0,,00.0,0633.8,30.9
2021-01-28T21:38:00Z,00000200,01000000,-000.11,0000.05,0000.14,0000.30,-000.13,0000.02,0000.06,0000.10,-000.09,16.3,23.0,,00.0,0633.8,30.9
2021-01-28T21:39:00Z,00000200,01000000,0000.12,0000.15,-000.23,0000.23,0000.32,-000.07,-000.02,0000.10,-000.20,16.3,23.0,,00.0,0633.9,30.9
2021-01-28T21:40:00Z,00000200,01000000,0000.53,0000.48,0000.20,0000.17,0000.26,0000.24,-000.01,-000.35,-000.28,16.2,23.0,,00.0,0633.9,30.9
2021-01-28T21:41:00Z,00000200,01000000,-000.17,0000.22,-000.37,-000.03,0000.14,-000.27,-000.07,0000.09,-000.08,16.1,22.9,,00.0,0634.0,30.9
2021-01-28T21:42:00Z,00000200,01000000,-000.11,0000.25,-000.26,0000.05,0000.24,-000.12,-000.28,-000.28,0000.17,16.0,22.9,,00.0,0634.0,30.9
2021-01-28T21:43:00Z,00000200,01000000,0000.39,-000.17,-000.09,0000.07,0000.16,0000.16,-000.09,0000.12,-000.12,15.9,22.8,,00.0,0634.0,30.9
2021-01-28T21:44:00Z,00000200,01000000,0000.24,0000.25,0000.18,0000.00,-000.08,-000.09,0000.04,-000.13,0000.47,15.8,22.8,,00.0,0634.0,30.8
2021-01-28T21:45:00Z,00000200,01000000,0000.17,0000.30,-000.02,0000.09,-000.23,-000.11,-000.11,0000.37,-000.27,15.7,22.8,,00.0,0634.0,30.8
2021-01-28T21:46:00Z,00000200,01000000,0000.91,0000.07,-000.04,-000.04,0000.37,-000.07,0000.48,-000.03,-000.06,15.7,22.7,,00.0,0634.0,30.8
2021-01-28T21:47:00Z,00000200,01000000,0000.67,-000.10,-000.32,-000.43,-000.04,-000.29,0000.12,0000.19,0000.23,15.7,22.7,,00.0,0634.0,30.8
2021-01-28T21:48:00Z,00000200,01000000,0000.24,0000.19,0000.16,-000.18,0000.05,0000.17,0000.18,-000.00,0000.31,15.8,22.7,,00.0,0634.0,30.8
2021-01-28T21:49:00Z,00000200,01010000,0000.16,0000.27,-000.09,-000.26,0000.15,-000.13,-000.07,-000.31,-000.15,15.8,22.7,,00.0,0634.0,30.9
2021-01-28T21:50:00Z,00000200,01000000,0000.25,0000.49,0000.13,-000.01,0000.06,0000.06,-000.28,0000.07,0000.15,15.9,22.8,,00.0,0634.1,30.9
2021-01-28T21:51:00Z,00000200,01000000,-000.13,0000.13,-000.31,0000.07,-000.09,0000.11,0000.37,0000.40,0000.01,15.9,22.8,,00.0,0634.1,30.9
2021-01-28T21:52:00Z,00000200,01000000,0000.11,0000.14,0000.16,0000.24,0000.11,0000.14,-000.14,-000.27,0000.17,16.0,22.9,,00.0,0634.1,30.9
2021-01-28T21:53:00Z,00000200,01000000,0000.49,0000.36,-000.03,0000.50,-000.00,-000.20,0000.03,0000.22,-000.24,16.0,22.9,,00.0,0634.1,30.9
2021-01-28T21:54:00Z,00000200,01000000,0000.33,0000.11,-000.12,0000.19,0000.01,-000.09,-000.10,-000.48,-000.31,16.0,22.9,,00.0,0634.1,30.9
2021-01-28T21:55:00Z,00000200,01000000,0000.52,0000.37,0000.06,-000.08,0000.39,0000.13,-000.02,0000.41,0000.14,15.9,22.8,,00.0,0634.1,30.9
2021-01-28T21:56:00Z,00000200,01000000,-000.17,0000.02,-000.09,0000.11,-000.09,-000.06,-000.20,-000.33,-000.19,15.8,22.8,,00.0,0634.1,30.8
2021-01-28T21:57:00Z,00000200,41000000,,,,,,,0001.69,0001.30,0000.97,15.9,22.8,,00.0,0634.3,30.8
2021-01-28T21:58:00Z,00000200,61000000,,,,,,,-000.24,0000.18,0000.19,15.2,22.9,,00.0,0633.3,30.8
2021-01-28T21:59:00Z,00000200,21000000,,,,,,,-000.58,-000.93,-000.23,15.2,23.0,,00.0,0633.2,30.8
